"FRM_AIS_EDR_2029.DAT           ",2005-08-13T21:17:27.52 ,"1/0072047842.24762",    0,    0,  137447,"AIS","B1","B1","B1","B1","PISd",0,0,0,0,"B1", 0,15,   0, 0,    0,"AIS","N/A    ","OK ","OK ",    000292.959,    0002.045,    -166.330,    0015.628,    0059.288
"FRM_AIS_EDR_2029.DAT           ",2005-08-13T21:17:35.06 ,"1/0072047849.60362",    0,    1,  137447,"AIS","B1","B1","B1","B1","PISd",0,0,0,0,"B1", 0,15,   0, 0,    0,"AIS","N/A    ","OK ","OK ",    000293.055,    0002.545,    -166.331,    0015.630,    0059.576
"FRM_AIS_EDR_2029.DAT           ",2005-08-13T21:17:42.61 ,"1/0072047857.30425",    0,    2,  137447,"AIS","B1","B1","B1","B1","PISd",0,0,0,0,"B1", 0,15,   0, 0,    0,"AIS","N/A    ","OK ","OK ",    000293.256,    0003.044,    -166.332,    0015.633,    0059.865
"FRM_AIS_EDR_2029.DAT           ",2005-08-13T21:17:50.15 ,"1/0072047865.00488",    0,    3,  137447,"AIS","B1","B1","B1","B1","PISd",0,0,0,0,"B1", 0,15,   0, 0,    0,"AIS","N/A    ","OK ","OK ",    000293.563,    0003.544,    -166.333,    0015.634,    0060.155
"FRM_AIS_EDR_2029.DAT           ",2005-08-13T21:17:57.69 ,"1/0072047872.36088",    0,    4,  137447,"AIS","B1","B1","B1","B1","PISd",0,0,0,0,"B1", 0,15,   0, 0,    0,"AIS","N/A    ","OK ","OK ",    000293.974,    0004.043,    -166.334,    0015.636,    0060.448
"FRM_AIS_EDR_2029.DAT           ",2005-08-13T21:18:05.23 ,"1/0072047880.06151",    0,    5,  137447,"AIS","B1","B1","B1","B1","PISd",0,0,0,0,"B1", 0,15,   0, 0,    0,"AIS","N/A    ","OK ","OK ",    000294.490,    0004.542,    -166.335,    0015.638,    0060.742
"FRM_AIS_EDR_2029.DAT           ",2005-08-13T21:18:12.78 ,"1/0072047887.41751",    0,    6,  137447,"AIS","B1","B1","B1","B1","PISd",0,0,0,0,"B1", 0,15,   0, 0,    0,"AIS","N/A    ","OK ","OK ",    000295.111,    0005.042,    -166.336,    0015.640,    0061.038
"FRM_AIS_EDR_2029.DAT           ",2005-08-13T21:18:20.32 ,"1/0072047895.11814",    0,    7,  137447,"AIS","B1","B1","B1","B1","PISd",0,0,0,0,"B1", 0,15,   0, 0,    0,"AIS","N/A    ","OK ","OK ",    000295.837,    0005.540,    -166.337,    0015.642,    0061.335
"FRM_AIS_EDR_2029.DAT           ",2005-08-13T21:18:27.86 ,"1/0072047902.47413",    0,    8,  137447,"AIS","B1","B1","B1","B1","PISd",0,0,0,0,"B1", 0,15,   0, 0,    0,"AIS","N/A    ","OK ","OK ",    000296.668,    0006.039,    -166.338,    0015.644,    0061.633
"FRM_AIS_EDR_2029.DAT           ",2005-08-13T21:18:35.41 ,"1/0072047910.17477",    0,    9,  137447,"AIS","B1","B1","B1","B1","PISd",0,0,0,0,"B1", 0,15,   0, 0,    0,"AIS","N/A    ","OK ","OK ",    000297.604,    0006.538,    -166.338,    0015.646,    0061.933
"FRM_AIS_EDR_2029.DAT           ",2005-08-13T21:18:42.95 ,"1/0072047917.53076",    0,   10,  137447,"AIS","B1","B1","B1","B1","PISd",0,0,0,0,"B1", 0,15,   0, 0,    0,"AIS","N/A    ","OK ","OK ",    000298.643,    0007.036,    -166.339,    0015.648,    0062.235
"FRM_AIS_EDR_2029.DAT           ",2005-08-13T21:18:50.49 ,"1/0072047925.23139",    0,   11,  137447,"AIS","B1","B1","B1","B1","PISd",0,0,0,0,"B1", 0,15,   0, 0,    0,"AIS","N/A    ","OK ","OK ",    000299.787,    0007.534,    -166.340,    0015.650,    0062.537
"FRM_AIS_EDR_2029.DAT           ",2005-08-13T21:18:58.04 ,"1/0072047932.58739",    0,   12,  137447,"AIS","B1","B1","B1","B1","PISd",0,0,0,0,"B1", 0,15,   0, 0,    0,"AIS","N/A    ","OK ","OK ",    000301.036,    0008.032,    -166.341,    0015.652,    0062.841
"FRM_AIS_EDR_2029.DAT           ",2005-08-13T21:19:05.58 ,"1/0072047940.28802",    0,   13,  137447,"AIS","B1","B1","B1","B1","PISd",0,0,0,0,"B1", 0,15,   0, 0,    0,"AIS","N/A    ","OK ","OK ",    000302.388,    0008.529,    -166.341,    0015.654,    0063.146
"FRM_AIS_EDR_2029.DAT           ",2005-08-13T21:19:13.12 ,"1/0072047947.64401",    0,   14,  137447,"AIS","B1","B1","B1","B1","PISd",0,0,0,0,"B1", 0,15,   0, 0,    0,"AIS","N/A    ","OK ","OK ",    000303.844,    0009.026,    -166.342,    0015.656,    0063.453
"FRM_AIS_EDR_2029.DAT           ",2005-08-13T21:19:20.67 ,"1/0072047955.34465",    0,   15,  137447,"AIS","B1","B1","B1","B1","PISd",0,0,0,0,"B1", 0,15,   0, 0,    0,"AIS","N/A    ","OK ","OK ",    000305.403,    0009.523,    -166.342,    0015.658,    0063.760
"FRM_AIS_EDR_2029.DAT           ",2005-08-13T21:19:28.21 ,"1/0072047963.04528",    0,   16,  137447,"AIS","B1","B1","B1","B1","PISd",0,0,0,0,"B1", 0,15,   0, 0,    0,"AIS","N/A    ","OK ","OK ",    000307.066,    0010.019,    -166.343,    0015.660,    0064.069
"FRM_AIS_EDR_2029.DAT           ",2005-08-13T21:19:35.75 ,"1/0072047970.40127",    0,   17,  137447,"AIS","B1","B1","B1","B1","PISd",0,0,0,0,"B1", 0,15,   0, 0,    0,"AIS","N/A    ","OK ","OK ",    000308.832,    0010.514,    -166.343,    0015.662,    0064.378
"FRM_AIS_EDR_2029.DAT           ",2005-08-13T21:19:43.30 ,"1/0072047978.10191",    0,   18,  137447,"AIS","B1","B1","B1","B1","PISd",0,0,0,0,"B1", 0,15,   0, 0,    0,"AIS","N/A    ","OK ","OK ",    000310.701,    0011.010,    -166.343,    0015.664,    0064.689
"FRM_AIS_EDR_2029.DAT           ",2005-08-13T21:19:50.84 ,"1/0072047985.45790",    0,   19,  137447,"AIS","B1","B1","B1","B1","PISd",0,0,0,0,"B1", 0,15,   0, 0,    0,"AIS","N/A    ","OK ","OK ",    000312.672,    0011.504,    -166.343,    0015.666,    0065.000
"FRM_AIS_EDR_2029.DAT           ",2005-08-13T21:19:58.38 ,"1/0072047993.15853",    0,   20,  137447,"AIS","B1","B1","B1","B1","PISd",0,0,0,0,"B1", 0,15,   0, 0,    0,"AIS","N/A    ","OK ","OK ",    000314.746,    0011.998,    -166.344,    0015.668,    0065.313
"FRM_AIS_EDR_2029.DAT           ",2005-08-13T21:20:05.93 ,"1/0072048000.51453",    0,   21,  137447,"AIS","B1","B1","B1","B1","PISd",0,0,0,0,"B1", 0,15,   0, 0,    0,"AIS","N/A    ","OK ","OK ",    000316.922,    0012.492,    -166.344,    0015.670,    0065.626
"FRM_AIS_EDR_2029.DAT           ",2005-08-13T21:20:13.47 ,"1/0072048008.21516",    0,   22,  137447,"AIS","B1","B1","B1","B1","PISd",0,0,0,0,"B1", 0,15,   0, 0,    0,"AIS","N/A    ","OK ","OK ",    000319.199,    0012.985,    -166.344,    0015.672,    0065.940
"FRM_AIS_EDR_2029.DAT           ",2005-08-13T21:20:21.01 ,"1/0072048015.57115",    0,   23,  137447,"AIS","B1","B1","B1","B1","PISd",0,0,0,0,"B1", 0,15,   0, 0,    0,"AIS","N/A    ","OK ","OK ",    000321.578,    0013.478,    -166.344,    0015.674,    0066.255
"FRM_AIS_EDR_2029.DAT           ",2005-08-13T21:20:28.56 ,"1/0072048023.27179",    0,   24,  137447,"AIS","B1","B1","B1","B1","PISd",0,0,0,0,"B1", 0,15,   0, 0,    0,"AIS","N/A    ","OK ","OK ",    000324.058,    0013.969,    -166.343,    0015.676,    0066.570
"FRM_AIS_EDR_2029.DAT           ",2005-08-13T21:20:36.10 ,"1/0072048030.62778",    0,   25,  137447,"AIS","B1","B1","B1","B1","PISd",0,0,0,0,"B1", 0,15,   0, 0,    0,"AIS","N/A    ","OK ","OK ",    000326.639,    0014.461,    -166.343,    0015.679,    0066.886
"FRM_AIS_EDR_2029.DAT           ",2005-08-13T21:20:43.64 ,"1/0072048038.32841",    0,   26,  137447,"AIS","B1","B1","B1","B1","PISd",0,0,0,0,"B1", 0,15,   0, 0,    0,"AIS","N/A    ","OK ","OK ",    000329.320,    0014.951,    -166.343,    0015.681,    0067.203
"FRM_AIS_EDR_2029.DAT           ",2005-08-13T21:20:51.19 ,"1/0072048046.02905",    0,   27,  137447,"AIS","B1","B1","B1","B1","PISd",0,0,0,0,"B1", 0,15,   0, 0,    0,"AIS","N/A    ","OK ","OK ",    000332.101,    0015.441,    -166.342,    0015.683,    0067.521
"FRM_AIS_EDR_2029.DAT           ",2005-08-13T21:20:58.73 ,"1/0072048053.38504",    0,   28,  137447,"AIS","B1","B1","B1","B1","PISd",0,0,0,0,"B1", 0,15,   0, 0,    0,"AIS","N/A    ","OK ","OK ",    000334.982,    0015.930,    -166.342,    0015.685,    0067.839
"FRM_AIS_EDR_2029.DAT           ",2005-08-13T21:21:06.27 ,"1/0072048061.08567",    0,   29,  137447,"AIS","B1","B1","B1","B1","PISd",0,0,0,0,"B1", 0,15,   0, 0,    0,"AIS","N/A    ","OK ","OK ",    000337.962,    0016.418,    -166.341,    0015.687,    0068.157
"FRM_AIS_EDR_2029.DAT           ",2005-08-13T21:21:13.81 ,"1/0072048068.44167",    0,   30,  137447,"AIS","B1","B1","B1","B1","PISd",0,0,0,0,"B1", 0,15,   0, 0,    0,"AIS","N/A    ","OK ","OK ",    000341.041,    0016.906,    -166.340,    0015.689,    0068.476
"FRM_AIS_EDR_2029.DAT           ",2005-08-13T21:21:21.36 ,"1/0072048076.14230",    0,   31,  137447,"AIS","B1","B1","B1","B1","PISd",0,0,0,0,"B1", 0,15,   0, 0,    0,"AIS","N/A    ","OK ","OK ",    000344.219,    0017.393,    -166.339,    0015.691,    0068.795
"FRM_AIS_EDR_2029.DAT           ",2005-08-13T21:21:28.90 ,"1/0072048083.49829",    0,   32,  137447,"AIS","B1","B1","B1","B1","PISd",0,0,0,0,"B1", 0,15,   0, 0,    0,"AIS","N/A    ","OK ","OK ",    000347.494,    0017.878,    -166.338,    0015.693,    0069.115
"FRM_AIS_EDR_2029.DAT           ",2005-08-13T21:21:36.44 ,"1/0072048091.19893",    0,   33,  137447,"AIS","B1","B1","B1","B1","PISd",0,0,0,0,"B1", 0,15,   0, 0,    0,"AIS","N/A    ","OK ","OK ",    000350.867,    0018.363,    -166.337,    0015.695,    0069.435
"FRM_AIS_EDR_2029.DAT           ",2005-08-13T21:21:43.99 ,"1/0072048098.55492",    0,   34,  137447,"AIS","B1","B1","B1","B1","PISd",0,0,0,0,"B1", 0,15,   0, 0,    0,"AIS","N/A    ","OK ","OK ",    000354.338,    0018.848,    -166.336,    0015.697,    0069.755
"FRM_AIS_EDR_2029.DAT           ",2005-08-13T21:21:51.53 ,"1/0072048106.25555",    0,   35,  137447,"AIS","B1","B1","B1","B1","PISd",0,0,0,0,"B1", 0,15,   0, 0,    0,"AIS","N/A    ","OK ","OK ",    000357.905,    0019.331,    -166.334,    0015.699,    0070.076
"FRM_AIS_EDR_2029.DAT           ",2005-08-13T21:21:59.07 ,"1/0072048113.61154",    0,   36,  137447,"AIS","B1","B1","B1","B1","PISd",0,0,0,0,"B1", 0,15,   0, 0,    0,"AIS","N/A    ","OK ","OK ",    000361.568,    0019.813,    -166.333,    0015.702,    0070.396
"FRM_AIS_EDR_2029.DAT           ",2005-08-13T21:22:06.62 ,"1/0072048121.31218",    0,   37,  137447,"AIS","B1","B1","B1","B1","PISd",0,0,0,0,"B1", 0,15,   0, 0,    0,"AIS","N/A    ","OK ","OK ",    000365.327,    0020.295,    -166.331,    0015.704,    0070.717
"FRM_AIS_EDR_2029.DAT           ",2005-08-13T21:22:14.16 ,"1/0072048129.01281",    0,   38,  137447,"AIS","B1","B1","B1","B1","PISd",0,0,0,0,"B1", 0,15,   0, 0,    0,"AIS","N/A    ","OK ","OK ",    000369.181,    0020.775,    -166.329,    0015.706,    0071.039
"FRM_AIS_EDR_2029.DAT           ",2005-08-13T21:22:21.70 ,"1/0072048136.36880",    0,   39,  137447,"AIS","B1","B1","B1","B1","PISd",0,0,0,0,"B1", 0,15,   0, 0,    0,"AIS","N/A    ","OK ","OK ",    000373.130,    0021.255,    -166.327,    0015.708,    0071.360
"FRM_AIS_EDR_2029.DAT           ",2005-08-13T21:22:29.25 ,"1/0072048144.06944",    0,   40,  137447,"AIS","B1","B1","B1","B1","PISd",0,0,0,0,"B1", 0,15,   0, 0,    0,"AIS","N/A    ","OK ","OK ",    000377.173,    0021.733,    -166.325,    0015.710,    0071.681
"FRM_AIS_EDR_2029.DAT           ",2005-08-13T21:22:36.79 ,"1/0072048151.42543",    0,   41,  137447,"AIS","B1","B1","B1","B1","PISd",0,0,0,0,"B1", 0,15,   0, 0,    0,"AIS","N/A    ","OK ","OK ",    000381.310,    0022.211,    -166.323,    0015.713,    0072.002
"FRM_AIS_EDR_2029.DAT           ",2005-08-13T21:22:44.33 ,"1/0072048159.12606",    0,   42,  137447,"AIS","B1","B1","B1","B1","PISd",0,0,0,0,"B1", 0,15,   0, 0,    0,"AIS","N/A    ","OK ","OK ",    000385.540,    0022.687,    -166.321,    0015.715,    0072.324
"FRM_AIS_EDR_2029.DAT           ",2005-08-13T21:22:51.88 ,"1/0072048166.48206",    0,   43,  137447,"AIS","B1","B1","B1","B1","PISd",0,0,0,0,"B1", 0,15,   0, 0,    0,"AIS","N/A    ","OK ","OK ",    000389.863,    0023.163,    -166.318,    0015.717,    0072.645
"FRM_AIS_EDR_2029.DAT           ",2005-08-13T21:22:59.42 ,"1/0072048174.18269",    0,   44,  137447,"AIS","B1","B1","B1","B1","PISd",0,0,0,0,"B1", 0,15,   0, 0,    0,"AIS","N/A    ","OK ","OK ",    000394.278,    0023.637,    -166.316,    0015.719,    0072.966
"FRM_AIS_EDR_2029.DAT           ",2005-08-13T21:23:06.96 ,"1/0072048181.53868",    0,   45,  137447,"AIS","B1","B1","B1","B1","PISd",0,0,0,0,"B1", 0,15,   0, 0,    0,"AIS","N/A    ","OK ","OK ",    000398.784,    0024.110,    -166.313,    0015.721,    0073.287
"FRM_AIS_EDR_2029.DAT           ",2005-08-13T21:23:14.51 ,"1/0072048189.23932",    0,   46,  137447,"AIS","B1","B1","B1","B1","PISd",0,0,0,0,"B1", 0,15,   0, 0,    0,"AIS","N/A    ","OK ","OK ",    000403.382,    0024.582,    -166.310,    0015.724,    0073.608
"FRM_AIS_EDR_2029.DAT           ",2005-08-13T21:23:22.05 ,"1/0072048196.59531",    0,   47,  137447,"AIS","B1","B1","B1","B1","PISd",0,0,0,0,"B1", 0,15,   0, 0,    0,"AIS","N/A    ","OK ","OK ",    000408.070,    0025.053,    -166.306,    0015.726,    0073.929
"FRM_AIS_EDR_2029.DAT           ",2005-08-13T21:23:29.59 ,"1/0072048204.29594",    0,   48,  137447,"AIS","B1","B1","B1","B1","PISd",0,0,0,0,"B1", 0,15,   0, 0,    0,"AIS","N/A    ","OK ","OK ",    000412.848,    0025.523,    -166.303,    0015.728,    0074.249
"FRM_AIS_EDR_2029.DAT           ",2005-08-13T21:23:37.14 ,"1/0072048211.65194",    0,   49,  137447,"AIS","B1","B1","B1","B1","PISd",0,0,0,0,"B1", 0,15,   0, 0,    0,"AIS","N/A    ","OK ","OK ",    000417.716,    0025.992,    -166.299,    0015.730,    0074.569
"FRM_AIS_EDR_2029.DAT           ",2005-08-13T21:23:44.68 ,"1/0072048219.35257",    0,   50,  137447,"AIS","B1","B1","B1","B1","PISd",0,0,0,0,"B1", 0,15,   0, 0,    0,"AIS","N/A    ","OK ","OK ",    000422.672,    0026.459,    -166.296,    0015.733,    0074.889
"FRM_AIS_EDR_2029.DAT           ",2005-08-13T21:23:52.22 ,"1/0072048227.05320",    0,   51,  137447,"AIS","B1","B1","B1","B1","PISd",0,0,0,0,"B1", 0,15,   0, 0,    0,"AIS","N/A    ","OK ","OK ",    000427.716,    0026.926,    -166.292,    0015.735,    0075.209
"FRM_AIS_EDR_2029.DAT           ",2005-08-13T21:23:59.77 ,"1/0072048234.40920",    0,   52,  137447,"AIS","B1","B1","B1","B1","PISd",0,0,0,0,"B1", 0,15,   0, 0,    0,"AIS","N/A    ","OK ","OK ",    000432.848,    0027.391,    -166.288,    0015.737,    0075.529
"FRM_AIS_EDR_2029.DAT           ",2005-08-13T21:24:07.31 ,"1/0072048242.10983",    0,   53,  137447,"AIS","B1","B1","B1","B1","PISd",0,0,0,0,"B1", 0,15,   0, 0,    0,"AIS","N/A    ","OK ","OK ",    000438.066,    0027.855,    -166.283,    0015.740,    0075.848
"FRM_AIS_EDR_2029.DAT           ",2005-08-13T21:24:14.85 ,"1/0072048249.46582",    0,   54,  137447,"AIS","B1","B1","B1","B1","PISd",0,0,0,0,"B1", 0,15,   0, 0,    0,"AIS","N/A    ","OK ","OK ",    000443.371,    0028.317,    -166.279,    0015.742,    0076.166
"FRM_AIS_EDR_2029.DAT           ",2005-08-13T21:24:22.39 ,"1/0072048257.16646",    0,   55,  137447,"AIS","B1","B1","B1","B1","PISd",0,0,0,0,"B1", 0,15,   0, 0,    0,"AIS","N/A    ","OK ","OK ",    000448.762,    0028.778,    -166.274,    0015.744,    0076.484
"FRM_AIS_EDR_2029.DAT           ",2005-08-13T21:24:29.94 ,"1/0072048264.52245",    0,   56,  137447,"AIS","B1","B1","B1","B1","PISd",0,0,0,0,"B1", 0,15,   0, 0,    0,"AIS","N/A    ","OK ","OK ",    000454.238,    0029.238,    -166.269,    0015.747,    0076.802
"FRM_AIS_EDR_2029.DAT           ",2005-08-13T21:24:37.48 ,"1/0072048272.22308",    0,   57,  137447,"AIS","B1","B1","B1","B1","PISd",0,0,0,0,"B1", 0,15,   0, 0,    0,"AIS","N/A    ","OK ","OK ",    000459.798,    0029.697,    -166.264,    0015.749,    0077.119
"FRM_AIS_EDR_2029.DAT           ",2005-08-13T21:24:45.02 ,"1/0072048279.57908",    0,   58,  137447,"AIS","B1","B1","B1","B1","PISd",0,0,0,0,"B1", 0,15,   0, 0,    0,"AIS","N/A    ","OK ","OK ",    000465.442,    0030.154,    -166.258,    0015.751,    0077.436
"FRM_AIS_EDR_2029.DAT           ",2005-08-13T21:24:52.57 ,"1/0072048287.27971",    0,   59,  137447,"AIS","B1","B1","B1","B1","PISd",0,0,0,0,"B1", 0,15,   0, 0,    0,"AIS","N/A    ","OK ","OK ",    000471.170,    0030.610,    -166.253,    0015.754,    0077.752
"FRM_AIS_EDR_2029.DAT           ",2005-08-13T21:25:00.11 ,"1/0072048294.63570",    0,   60,  137447,"AIS","B1","B1","B1","B1","PISd",0,0,0,0,"B1", 0,15,   0, 0,    0,"AIS","N/A    ","OK ","OK ",    000476.979,    0031.065,    -166.247,    0015.756,    0078.068
"FRM_AIS_EDR_2029.DAT           ",2005-08-13T21:25:07.65 ,"1/0072048302.33634",    0,   61,  137447,"AIS","B1","B1","B1","B1","PISd",0,0,0,0,"B1", 0,15,   0, 0,    0,"AIS","N/A    ","OK ","OK ",    000482.871,    0031.519,    -166.240,    0015.759,    0078.383
"FRM_AIS_EDR_2029.DAT           ",2005-08-13T21:25:15.20 ,"1/0072048310.03697",    0,   62,  137447,"AIS","B1","B1","B1","B1","PISd",0,0,0,0,"B1", 0,15,   0, 0,    0,"AIS","N/A    ","OK ","OK ",    000488.844,    0031.971,    -166.234,    0015.761,    0078.698
"FRM_AIS_EDR_2029.DAT           ",2005-08-13T21:25:22.74 ,"1/0072048317.39296",    0,   63,  137447,"AIS","B1","B1","B1","B1","PISd",0,0,0,0,"B1", 0,15,   0, 0,    0,"AIS","N/A    ","OK ","OK ",    000494.898,    0032.421,    -166.227,    0015.764,    0079.011
"FRM_AIS_EDR_2029.DAT           ",2005-08-13T21:25:30.28 ,"1/0072048325.09360",    0,   64,  137447,"AIS","B1","B1","B1","B1","PISd",0,0,0,0,"B1", 0,15,   0, 0,    0,"AIS","N/A    ","OK ","OK ",    000501.031,    0032.870,    -166.221,    0015.766,    0079.325
"FRM_AIS_EDR_2029.DAT           ",2005-08-13T21:25:37.83 ,"1/0072048332.44959",    0,   65,  137447,"AIS","B1","B1","B1","B1","PISd",0,0,0,0,"B1", 0,15,   0, 0,    0,"AIS","N/A    ","OK ","OK ",    000507.244,    0033.318,    -166.213,    0015.769,    0079.637
"FRM_AIS_EDR_2029.DAT           ",2005-08-13T21:25:45.37 ,"1/0072048340.15022",    0,   66,  137447,"AIS","B1","B1","B1","B1","PISd",0,0,0,0,"B1", 0,15,   0, 0,    0,"AIS","N/A    ","OK ","OK ",    000513.536,    0033.765,    -166.206,    0015.771,    0079.949
"FRM_AIS_EDR_2029.DAT           ",2005-08-13T21:25:52.91 ,"1/0072048347.50622",    0,   67,  137447,"AIS","B1","B1","B1","B1","PISd",0,0,0,0,"B1", 0,15,   0, 0,    0,"AIS","N/A    ","OK ","OK ",    000519.905,    0034.210,    -166.198,    0015.774,    0080.260
"FRM_AIS_EDR_2029.DAT           ",2005-08-13T21:26:00.46 ,"1/0072048355.20685",    0,   68,  137447,"AIS","B1","B1","B1","B1","PISd",0,0,0,0,"B1", 0,15,   0, 0,    0,"AIS","N/A    ","OK ","OK ",    000526.352,    0034.653,    -166.190,    0015.776,    0080.570
"FRM_AIS_EDR_2029.DAT           ",2005-08-13T21:26:08.00 ,"1/0072048362.56284",    0,   69,  137447,"AIS","B1","B1","B1","B1","PISd",0,0,0,0,"B1", 0,15,   0, 0,    0,"AIS","N/A    ","OK ","OK ",    000532.875,    0035.095,    -166.182,    0015.779,    0080.880
"FRM_AIS_EDR_2029.DAT           ",2005-08-13T21:26:15.54 ,"1/0072048370.26348",    0,   70,  137447,"AIS","B1","B1","B1","B1","PISd",0,0,0,0,"B1", 0,15,   0, 0,    0,"AIS","N/A    ","OK ","OK ",    000539.474,    0035.536,    -166.173,    0015.782,    0081.189
"FRM_AIS_EDR_2029.DAT           ",2005-08-13T21:26:23.09 ,"1/0072048377.61947",    0,   71,  137447,"AIS","B1","B1","B1","B1","PISd",0,0,0,0,"B1", 0,15,   0, 0,    0,"AIS","N/A    ","OK ","OK ",    000546.149,    0035.975,    -166.164,    0015.784,    0081.497
"FRM_AIS_EDR_2029.DAT           ",2005-08-13T21:26:30.63 ,"1/0072048385.32010",    0,   72,  137447,"AIS","B1","B1","B1","B1","PISd",0,0,0,0,"B1", 0,15,   0, 0,    0,"AIS","N/A    ","OK ","OK ",    000552.898,    0036.413,    -166.155,    0015.787,    0081.804
"FRM_AIS_EDR_2029.DAT           ",2005-08-13T21:26:38.17 ,"1/0072048393.02074",    0,   73,  137447,"AIS","B1","B1","B1","B1","PISd",0,0,0,0,"B1", 0,15,   0, 0,    0,"AIS","N/A    ","OK ","OK ",    000559.721,    0036.849,    -166.146,    0015.789,    0082.111
"FRM_AIS_EDR_2029.DAT           ",2005-08-13T21:26:45.72 ,"1/0072048400.37673",    0,   74,  137447,"AIS","B1","B1","B1","B1","PISd",0,0,0,0,"B1", 0,15,   0, 0,    0,"AIS","N/A    ","OK ","OK ",    000566.617,    0037.283,    -166.136,    0015.792,    0082.416
"FRM_AIS_EDR_2029.DAT           ",2005-08-13T21:26:53.26 ,"1/0072048408.07736",    0,   75,  137447,"AIS","B1","B1","B1","B1","PISd",0,0,0,0,"B1", 0,15,   0, 0,    0,"AIS","N/A    ","OK ","OK ",    000573.586,    0037.717,    -166.126,    0015.795,    0082.721
"FRM_AIS_EDR_2029.DAT           ",2005-08-13T21:27:00.80 ,"1/0072048415.43336",    0,   76,  137447,"AIS","B1","B1","B1","B1","PISd",0,0,0,0,"B1", 0,15,   0, 0,    0,"AIS","N/A    ","OK ","OK ",    000580.626,    0038.148,    -166.115,    0015.798,    0083.024
"FRM_AIS_EDR_2029.DAT           ",2005-08-13T21:27:08.35 ,"1/0072048423.13399",    0,   77,  137447,"AIS","B1","B1","B1","B1","PISd",0,0,0,0,"B1", 0,15,   0, 0,    0,"AIS","N/A    ","OK ","OK ",    000587.738,    0038.578,    -166.104,    0015.801,    0083.327
"FRM_AIS_EDR_2029.DAT           ",2005-08-13T21:27:15.89 ,"1/0072048430.48998",    0,   78,  137447,"AIS","B1","B1","B1","B1","PISd",0,0,0,0,"B1", 0,15,   0, 0,    0,"AIS","N/A    ","OK ","OK ",    000594.920,    0039.007,    -166.093,    0015.803,    0083.629
"FRM_AIS_EDR_2029.DAT           ",2005-08-13T21:27:23.43 ,"1/0072048438.19062",    0,   79,  137447,"AIS","B1","B1","B1","B1","PISd",0,0,0,0,"B1", 0,15,   0, 0,    0,"AIS","N/A    ","OK ","OK ",    000602.173,    0039.434,    -166.082,    0015.806,    0083.930
"FRM_AIS_EDR_2029.DAT           ",2005-08-13T21:27:30.97 ,"1/0072048445.54661",    0,   80,  137447,"AIS","B1","B1","B1","B1","PISd",0,0,0,0,"B1", 0,15,   0, 0,    0,"AIS","N/A    ","OK ","OK ",    000609.494,    0039.860,    -166.070,    0015.809,    0084.230
"FRM_AIS_EDR_2029.DAT           ",2005-08-13T21:27:38.52 ,"1/0072048453.24724",    0,   81,  137447,"AIS","B1","B1","B1","B1","PISd",0,0,0,0,"B1", 0,15,   0, 0,    0,"AIS","N/A    ","OK ","OK ",    000616.884,    0040.283,    -166.057,    0015.812,    0084.529
"FRM_AIS_EDR_2029.DAT           ",2005-08-13T21:27:46.06 ,"1/0072048460.60324",    0,   82,  137447,"AIS","B1","B1","B1","B1","PISd",0,0,0,0,"B1", 0,15,   0, 0,    0,"AIS","N/A    ","OK ","OK ",    000624.341,    0040.706,    -166.045,    0015.815,    0084.827
"FRM_AIS_EDR_2029.DAT           ",2005-08-13T21:27:53.60 ,"1/0072048468.30387",    0,   83,  137447,"AIS","B1","B1","B1","B1","PISd",0,0,0,0,"B1", 0,15,   0, 0,    0,"AIS","N/A    ","OK ","OK ",    000631.866,    0041.127,    -166.032,    0015.818,    0085.124
"FRM_AIS_EDR_2029.DAT           ",2005-08-13T21:28:01.15 ,"1/0072048476.00450",    0,   84,  137447,"AIS","B1","B1","B1","B1","PISd",0,0,0,0,"B1", 0,15,   0, 0,    0,"AIS","N/A    ","OK ","OK ",    000639.457,    0041.546,    -166.018,    0015.821,    0085.420
"FRM_AIS_EDR_2029.DAT           ",2005-08-13T21:28:08.69 ,"1/0072048483.36050",    0,   85,  137447,"AIS","B1","B1","B1","B1","PISd",0,0,0,0,"B1", 0,15,   0, 0,    0,"AIS","N/A    ","OK ","OK ",    000647.113,    0041.964,    -166.004,    0015.823,    0085.715
"FRM_AIS_EDR_2029.DAT           ",2005-08-13T21:28:16.23 ,"1/0072048491.06113",    0,   86,  137447,"AIS","B1","B1","B1","B1","PISd",0,0,0,0,"B1", 0,15,   0, 0,    0,"AIS","N/A    ","OK ","OK ",    000654.835,    0042.380,    -165.990,    0015.826,    0086.009
"FRM_AIS_EDR_2029.DAT           ",2005-08-13T21:28:23.78 ,"1/0072048498.41712",    0,   87,  137447,"AIS","B1","B1","B1","B1","PISd",0,0,0,0,"B1", 0,15,   0, 0,    0,"AIS","N/A    ","OK ","OK ",    000662.621,    0042.794,    -165.975,    0015.829,    0086.302
"FRM_AIS_EDR_2029.DAT           ",2005-08-13T21:28:31.32 ,"1/0072048506.11775",    0,   88,  137447,"AIS","B1","B1","B1","B1","PISd",0,0,0,0,"B1", 0,15,   0, 0,    0,"AIS","N/A    ","OK ","OK ",    000670.471,    0043.207,    -165.960,    0015.832,    0086.594
"FRM_AIS_EDR_2029.DAT           ",2005-08-13T21:28:38.86 ,"1/0072048513.47375",    0,   89,  137447,"AIS","B1","B1","B1","B1","PISd",0,0,0,0,"B1", 0,15,   0, 0,    0,"AIS","N/A    ","OK ","OK ",    000678.384,    0043.619,    -165.944,    0015.836,    0086.885
"FRM_AIS_EDR_2029.DAT           ",2005-08-13T21:28:46.41 ,"1/0072048521.17438",    0,   90,  137447,"AIS","B1","B1","B1","B1","PISd",0,0,0,0,"B1", 0,15,   0, 0,    0,"AIS","N/A    ","OK ","OK ",    000686.359,    0044.028,    -165.928,    0015.839,    0087.175